x

Big Carlos Pass, Fl (bgcf1) Weather Station

8:54am - Sun 29th Mar 2015 All times are EDT. -4 hours from GMT.

  • Wind
    11mph, 14mph gusts
  • Air Temp 59°f
  • Sea Pressure 1026.5mb
  • Big Carlos Pass, Fl
  • Big Carlos Pass, Fl

More Historic Weather Station data

Upgrade to MSW Pro to gain access to the past 30 days of data for over 8000 Wavebouys and Weather Stations around the globe.

Join Pro

Comparision Forecast

View Surf forecast
   
Sun 03/29 8:54am 11 14 mph 1026.5mb 59f
8:48am 11 15 mph 1026.5mb 58f
7:54am 15 18 mph 1025.5mb 58f
7:48am 16 18 mph 1025.4mb 58f
6:54am 14 16 mph 1024.9mb 59f
6:48am 14 16 mph 1024.8mb 59f
5:54am 13 14 mph 1023.9mb 59f
5:48am 13 15 mph 1023.9mb 59f
4:54am 14 16 mph 1023.6mb 59f
4:48am 14 16 mph 1023.5mb 59f
3:54am 15 17 mph 1023.5mb 60f
3:48am 13 16 mph 1023.5mb 60f
2:54am 9 11 mph 1023.6mb 61f
2:48am 9 11 mph 1023.8mb 61f
1:54am 8 10 mph 1024.2mb 62f
1:48am 7 9 mph 1024.2mb 62f
12:54am 9 11 mph 1024.6mb 62f
12:48am 8 10 mph 1024.6mb 63f
Sat 03/28 11:54pm 9 11 mph 1024.3mb 63f
11:48pm 9 11 mph 1024.4mb 63f
10:54pm 9 14 mph 1023.9mb 64f
10:48pm 7 10 mph 1023.9mb 64f
9:54pm 8 10 mph 1023.7mb 64f
9:48pm 8 13 mph 1023.5mb 64f
8:54pm 6 9 mph 1023mb 65f
8:48pm 6 8 mph 1022.8mb 65f
7:54pm 8 13 mph 1022mb 65f
7:48pm 7 11 mph 1021.9mb 65f
6:54pm 10 16 mph 1021.6mb 66f
6:48pm 13 18 mph 1021.5mb 67f
5:54pm 10 15 mph 1020.9mb 68f
5:48pm 13 18 mph 1020.8mb 68f
4:54pm 11 16 mph 1020.4mb 69f
4:48pm 14 18 mph 1020.4mb 69f
3:54pm 13 17 mph 1020.6mb 69f
3:48pm 13 21 mph 1020.7mb 69f
2:54pm 9 16 mph 1021.6mb 68f
2:48pm 11 16 mph 1021.6mb 68f
1:54pm 14 17 mph 1021.7mb 67f
1:48pm 15 18 mph 1021.8mb 67f
12:54pm 17 22 mph 1021.9mb 66f
12:48pm 17 23 mph 1021.9mb 66f
11:54am 14 18 mph 1022.1mb 66f
11:48am 10 17 mph 1022mb 65f
10:54am 9 10 mph 1021.9mb 63f
10:48am 7 10 mph 1021.9mb 63f
9:54am 9 13 mph 1021.6mb 62f
9:48am 10 13 mph 1021.4mb 62f
8:54am 16 20 mph 1020.8mb 61f
8:48am 16 20 mph 1020.6mb 61f
7:54am 9 13 mph 1019.6mb 63f
7:48am 11 15 mph 1019.4mb 63f
6:54am 11 14 mph 1018.9mb 64f
6:48am 14 17 mph 1018.8mb 64f
5:54am 15 17 mph 1018.2mb 64f
5:48am 14 17 mph 1017.9mb 64f
3:54am 11 15 mph 1017.1mb 66f
3:48am 13 16 mph 1016.9mb 66f
2:54am 13 18 mph 1016.7mb 67f
2:48am 14 17 mph 1016.7mb 67f
1:54am 10 13 mph 1016.8mb 68f
1:48am 10 15 mph 1016.8mb 69f
Fri 03/27 11:54pm 18 31 mph 1015mb 71f
11:48pm 17 23 mph 1015mb 71f
10:54pm 13 22 mph 1015.2mb 71f
10:48pm 14 18 mph 1015mb 71f
9:54pm 23 26 mph 1013.8mb 72f
9:48pm 21 25 mph 1013.8mb 72f
8:54pm 22 25 mph 1013.4mb 71f
8:48pm 22 24 mph 1013mb 71f
7:54pm 18 22 mph 1013.4mb 71f
7:48pm 17 21 mph 1013.3mb 70f
6:54pm 16 20 mph 1013.4mb 70f
6:48pm 16 22 mph 1013.5mb 71f
5:54pm 9 14 mph 1013.2mb 70f
5:48pm 9 14 mph 1013.1mb 70f
4:54pm 13 21 mph 1012.9mb 70f
4:48pm 13 22 mph 1013mb 70f
3:54pm 11 15 mph 1012.7mb 69f
3:48pm 16 20 mph 1012.8mb 69f
2:54pm 14 16 mph 1012.3mb 78f
2:48pm 15 17 mph 1012.5mb 78f
1:54pm 16 18 mph 1012.8mb 78f
1:48pm 14 16 mph 1012.8mb 78f
11:54am 18 21 mph 1013.5mb 78f
11:48am 18 22 mph 1013.5mb 78f
10:54am 15 18 mph 1013.5mb 78f
10:48am 15 17 mph 1013.5mb 78f
9:54am 15 17 mph 1012.9mb 78f
9:48am 15 18 mph 1013.1mb 78f
8:54am 17 21 mph 1012.4mb 78f
8:48am 17 22 mph 1012.5mb 78f
7:54am 15 17 mph 1012.5mb 77f
7:48am 13 16 mph 1012.5mb 77f
6:54am 8 15 mph 1013.2mb 75f
6:48am 11 13 mph 1012.9mb 77f
5:54am 9 11 mph 1012.8mb 77f
5:48am 11 13 mph 1012.9mb 77f
4:54am 11 13 mph 1012.9mb 77f
4:48am 11 14 mph 1013mb 77f
3:54am 15 16 mph 1013.5mb 78f
3:48am 15 16 mph 1013.6mb 78f
2:54am 16 18 mph 1013.4mb 78f
2:48am 16 20 mph 1013.4mb 78f
1:54am 15 17 mph 1014mb 78f
1:48am 14 16 mph 1014.1mb 78f
Thu 03/26 11:54pm 9 11 mph 1014.3mb 78f
11:48pm 9 13 mph 1014.4mb 78f
10:54pm 9 10 mph 1014.5mb 78f
10:48pm 8 10 mph 1014.5mb 78f
9:54pm 9 14 mph 1014.3mb 78f
9:48pm 10 14 mph 1014.2mb 78f
8:54pm 11 14 mph 1013.8mb 78f
8:48pm 10 14 mph 1013.7mb 78f
7:54pm 14 16 mph 1013.3mb 78f
7:48pm 11 15 mph 1013.3mb 78f
6:54pm 11 15 mph 1013.5mb 79f
6:48pm 11 14 mph 1013.4mb 79f
5:54pm 14 16 mph 1013.4mb 80f
5:48pm 14 16 mph 1013.4mb 80f
4:54pm 13 16 mph 1013.7mb 80f
4:48pm 13 16 mph 1013.8mb 80f
3:54pm 14 16 mph 1014.3mb 80f
3:48pm 14 16 mph 1014.4mb 80f
2:54pm 15 18 mph 1014.9mb 80f
2:48pm 16 20 mph 1014.9mb 80f
1:54pm 14 18 mph 1015.6mb 80f
1:48pm 16 20 mph 1015.7mb 80f